Regional Weather Roundup
Issued by NWS

Home | Current Version | Previous Version | Text Only | Print | Product List | Glossary Off
Versions: 1 2 3 4 5 6 7 8 9 10 11 12 13 14 15 16 17 18 19 20 21 22 23 24 25 26 27 28 29 30 31 32 33 34 35 36 37 38 39 40 41 42 43 44 45 46 47 48 49 50

000
ASUS43 KLMK 301302
RWRKY
KENTUCKY REGIONAL WEATHER ROUNDUP
NATIONAL WEATHER SERVICE LOUISVILLE KY
900 AM EDT SUN AUG 30 2015

NOTE "FAIR" INDICATES FEW OR NO CLOUDS BELOW 12,000 FEET
WITH NO SIGNIFICANT WEATHER AND/OR OBSTRUCTIONS TO VISIBILITY.

KYZ001>023-026-027-061>063-070>075-301400-
WESTERN AND SOUTH CENTRAL KENTUCKY

CITY           SKY/WX    TMP DP  RH WIND       PRES   REMARKS
PADUCAH        CLOUDY    71  69  93 E3        30.06S FOG
HENDERSON      CLOUDY    72  66  83 S7        30.07S
OWENSBORO      PTSUNNY   73  70  91 S6        30.10R
HOPKINSVILLE   MOSUNNY   70  66  89 SE3       30.11R
BOWLING GREEN  PTSUNNY   72  67  84 S5        30.13R
GLASGOW        NOT AVBL
$$

KYZ024-025-028>034-038-045-046-053-301400-
NORTH CENTRAL KENTUCKY

CITY           SKY/WX    TMP DP  RH WIND       PRES   REMARKS
LOUISVILLE/SDF PTSUNNY   74  66  76 S6        30.10S
LOUISVILLE/LOU MOSUNNY   73  67  81 S7        30.12R
FORT KNOX      PTSUNNY   69  67  92 S5        30.11R
$$

KYZ035>037-039>044-047>052-055>060-089>105-301400-
NORTHEAST KENTUCKY

CITY           SKY/WX    TMP DP  RH WIND       PRES   REMARKS
LEXINGTON      MOSUNNY   71  67  87 S8        30.15R
COVINGTON      PTSUNNY   69  67  93 S6        30.12R
FRANKFORT      CLOUDY    71  66  84 SW6       30.13R
$$

KYZ054-064>069-076>088-106>120-301400-
SOUTHEAST KENTUCKY

CITY           SKY/WX    TMP DP  RH WIND       PRES   REMARKS
JACKSON        CLOUDY    68  64  87 CALM      30.19R
LONDON         PTSUNNY   69  63  81 CALM      30.18R
SOMERSET       NOT AVBL
MIDDLESBORO    CLOUDY    65  64  97 CALM      30.20S
MONTICELLO     CLOUDY    70  70 100 CALM      30.19R
$$



USA.gov is the U.S. government's official web portal to all federal, state and local government web resources and services.